Time,TemperatureF,DewpointF,PressureIn,WindDirection,WindDirectionDegrees,WindSpeedMPH,WindSpeedGustMPH,Humidity,HourlyPrecipIn,Conditions,Clouds,dailyrainin,SoftwareType,DateUTC
2013-05-14 00:01:00,40.0,35.0,30.17,South,180,6.0,9.0,78,0.00,,,0.00,Rainwise IP-100,2013-05-14 04:01:00,
2013-05-14 00:06:00,40.0,35.0,30.17,South,180,8.0,8.0,78,0.00,,,0.00,Rainwise IP-100,2013-05-14 04:06:00,
2013-05-14 00:11:00,40.0,35.0,30.17,SSW,202,5.0,8.0,78,0.00,,,0.00,Rainwise IP-100,2013-05-14 04:11:00,
2013-05-14 00:16:00,40.0,35.0,30.17,South,180,5.0,7.0,78,0.00,,,0.00,Rainwise IP-100,2013-05-14 04:16:00,
2013-05-14 00:21:00,39.0,33.0,30.17,North,360,3.0,6.0,81,0.00,,,0.00,Rainwise IP-100,2013-05-14 04:21:00,
2013-05-14 00:26:00,39.0,35.0,30.17,North,360,6.0,7.0,83,0.00,,,0.00,Rainwise IP-100,2013-05-14 04:26:00,
2013-05-14 00:31:00,39.0,35.0,30.18,North,360,1.0,6.0,85,0.00,,,0.00,Rainwise IP-100,2013-05-14 04:31:00,
2013-05-14 00:36:00,39.0,36.0,30.18,North,360,0.0,7.0,86,0.00,,,0.00,Rainwise IP-100,2013-05-14 04:36:00,
2013-05-14 00:41:00,38.0,35.0,30.17,NE,45,2.0,0.0,89,0.00,,,0.00,Rainwise IP-100,2013-05-14 04:41:00,
2013-05-14 00:46:00,38.0,36.0,30.17,NE,45,0.0,3.0,91,0.00,,,0.00,Rainwise IP-100,2013-05-14 04:46:00,
2013-05-14 00:51:00,38.0,36.0,30.17,NE,45,0.0,0.0,93,0.00,,,0.00,Rainwise IP-100,2013-05-14 04:51:00,
2013-05-14 00:56:00,38.0,36.0,30.17,SSE,157,3.0,4.0,91,0.00,,,0.00,Rainwise IP-100,2013-05-14 04:56:00,
2013-05-14 01:01:00,38.0,36.0,30.17,SSE,157,3.0,4.0,91,0.00,,,0.00,Rainwise IP-100,2013-05-14 05:01:00,
2013-05-14 01:06:00,38.0,36.0,30.17,SSE,157,4.0,5.0,92,0.00,,,0.00,Rainwise IP-100,2013-05-14 05:06:00,
2013-05-14 01:11:00,38.0,36.0,30.17,SSE,157,0.0,5.0,92,0.00,,,0.00,Rainwise IP-100,2013-05-14 05:11:00,
2013-05-14 01:16:00,38.0,37.0,30.17,SSE,157,0.0,1.0,95,0.00,,,0.00,Rainwise IP-100,2013-05-14 05:16:00,
2013-05-14 01:21:00,38.0,37.0,30.17,SSE,157,1.0,2.0,96,0.00,,,0.00,Rainwise IP-100,2013-05-14 05:21:00,
2013-05-14 01:26:00,37.0,36.0,30.17,SSE,157,0.0,2.0,96,0.00,,,0.00,Rainwise IP-100,2013-05-14 05:26:00,
2013-05-14 01:31:00,37.0,36.0,30.17,SSE,157,0.0,0.0,96,0.00,,,0.00,Rainwise IP-100,2013-05-14 05:31:00,
2013-05-14 01:36:00,37.0,36.0,30.17,SSE,157,0.0,0.0,96,0.00,,,0.00,Rainwise IP-100,2013-05-14 05:36:00,
2013-05-14 01:41:00,36.0,35.0,30.17,SSE,157,4.0,4.0,95,0.00,,,0.00,Rainwise IP-100,2013-05-14 05:41:00,
2013-05-14 01:46:00,36.0,35.0,30.17,SSW,202,3.0,4.0,95,0.00,,,0.00,Rainwise IP-100,2013-05-14 05:46:00,
2013-05-14 01:51:00,36.0,35.0,30.17,SW,225,3.0,6.0,95,0.00,,,0.00,Rainwise IP-100,2013-05-14 05:51:00,
2013-05-14 01:56:00,36.0,35.0,30.17,South,180,5.0,5.0,95,0.00,,,0.00,Rainwise IP-100,2013-05-14 05:56:00,
2013-05-14 02:01:00,36.0,35.0,30.17,SSE,157,3.0,5.0,95,0.00,,,0.00,Rainwise IP-100,2013-05-14 06:01:00,
2013-05-14 02:06:00,35.0,33.0,30.17,SSE,157,4.0,6.0,95,0.00,,,0.00,Rainwise IP-100,2013-05-14 06:06:00,
2013-05-14 02:11:00,35.0,33.0,30.16,SSE,157,3.0,6.0,95,0.00,,,0.00,Rainwise IP-100,2013-05-14 06:11:00,
2013-05-14 02:16:00,35.0,33.0,30.16,South,180,2.0,5.0,95,0.00,,,0.00,Rainwise IP-100,2013-05-14 06:16:00,
2013-05-14 02:21:00,35.0,33.0,30.17,SSE,157,3.0,3.0,95,0.00,,,0.00,Rainwise IP-100,2013-05-14 06:21:00,
2013-05-14 02:26:00,34.0,33.0,30.17,SSE,157,0.0,3.0,95,0.00,,,0.00,Rainwise IP-100,2013-05-14 06:26:00,
2013-05-14 02:31:00,34.0,33.0,30.17,SSE,157,0.0,0.0,95,0.00,,,0.00,Rainwise IP-100,2013-05-14 06:31:00,
2013-05-14 02:36:00,33.0,32.0,30.17,SSE,157,3.0,3.0,95,0.00,,,0.00,Rainwise IP-100,2013-05-14 06:36:00,
2013-05-14 02:41:00,34.0,33.0,30.17,SSE,157,5.0,5.0,95,0.00,,,0.00,Rainwise IP-100,2013-05-14 06:41:00,
2013-05-14 02:46:00,34.0,33.0,30.17,SE,135,5.0,6.0,95,0.00,,,0.00,Rainwise IP-100,2013-05-14 06:46:00,
2013-05-14 02:51:00,33.0,32.0,30.17,SE,135,0.0,6.0,95,0.00,,,0.00,Rainwise IP-100,2013-05-14 06:51:00,
2013-05-14 02:56:00,33.0,32.0,30.17,SE,135,2.0,2.0,95,0.00,,,0.00,Rainwise IP-100,2013-05-14 06:56:00,
2013-05-14 03:01:00,32.0,31.0,30.18,SE,135,0.0,3.0,95,0.00,,,0.00,Rainwise IP-100,2013-05-14 07:01:00,
2013-05-14 03:06:00,32.0,31.0,30.18,SE,135,0.0,0.0,95,0.00,,,0.00,Rainwise IP-100,2013-05-14 07:06:00,
2013-05-14 03:11:00,32.0,31.0,30.19,SE,135,2.0,3.0,95,0.00,,,0.00,Rainwise IP-100,2013-05-14 07:11:00,
2013-05-14 03:16:00,32.0,31.0,30.19,South,180,5.0,6.0,95,0.00,,,0.00,Rainwise IP-100,2013-05-14 07:16:00,
2013-05-14 03:21:00,32.0,31.0,30.19,SSE,157,4.0,5.0,95,0.00,,,0.00,Rainwise IP-100,2013-05-14 07:21:00,
2013-05-14 03:26:00,32.0,31.0,30.19,South,180,6.0,7.0,95,0.00,,,0.00,Rainwise IP-100,2013-05-14 07:26:00,
2013-05-14 03:31:00,32.0,31.0,30.19,SSE,157,5.0,7.0,95,0.00,,,0.00,Rainwise IP-100,2013-05-14 07:31:00,
2013-05-14 03:36:00,32.0,31.0,30.19,South,180,4.0,6.0,95,0.00,,,0.00,Rainwise IP-100,2013-05-14 07:36:00,
2013-05-14 03:41:00,32.0,31.0,30.19,SSE,157,4.0,6.0,95,0.00,,,0.00,Rainwise IP-100,2013-05-14 07:41:00,
2013-05-14 03:46:00,33.0,32.0,30.19,SSE,157,5.0,6.0,95,0.00,,,0.00,Rainwise IP-100,2013-05-14 07:46:00,
2013-05-14 03:51:00,33.0,32.0,30.19,SSE,157,5.0,6.0,95,0.00,,,0.00,Rainwise IP-100,2013-05-14 07:51:00,
2013-05-14 03:56:00,33.0,32.0,30.19,SE,135,6.0,6.0,95,0.00,,,0.00,Rainwise IP-100,2013-05-14 07:56:00,
2013-05-14 04:01:00,33.0,32.0,30.19,SE,135,5.0,7.0,95,0.00,,,0.00,Rainwise IP-100,2013-05-14 08:01:00,
2013-05-14 04:06:00,33.0,32.0,30.19,SSE,157,2.0,6.0,95,0.00,,,0.00,Rainwise IP-100,2013-05-14 08:06:00,
2013-05-14 04:11:00,32.0,31.0,30.18,South,180,3.0,3.0,95,0.00,,,0.00,Rainwise IP-100,2013-05-14 08:11:00,
2013-05-14 04:16:00,32.0,31.0,30.18,South,180,1.0,4.0,95,0.00,,,0.00,Rainwise IP-100,2013-05-14 08:16:00,
2013-05-14 04:21:00,31.0,29.0,30.19,SSE,157,2.0,3.0,95,0.00,,,0.00,Rainwise IP-100,2013-05-14 08:21:00,
2013-05-14 04:26:00,31.0,29.0,30.19,SSE,157,3.0,3.0,95,0.00,,,0.00,Rainwise IP-100,2013-05-14 08:26:00,
2013-05-14 04:31:00,30.0,29.0,30.19,SSE,157,0.0,5.0,95,0.00,,,0.00,Rainwise IP-100,2013-05-14 08:31:00,
2013-05-14 04:36:00,30.0,29.0,30.19,SW,225,0.0,5.0,95,0.00,,,0.00,Rainwise IP-100,2013-05-14 08:36:00,
2013-05-14 04:41:00,30.0,29.0,30.20,SW,225,4.0,4.0,95,0.00,,,0.00,Rainwise IP-100,2013-05-14 08:41:00,
2013-05-14 04:46:00,30.0,29.0,30.20,SSW,202,6.0,6.0,95,0.00,,,0.00,Rainwise IP-100,2013-05-14 08:46:00,
2013-05-14 04:51:00,31.0,29.0,30.20,South,180,4.0,6.0,95,0.00,,,0.00,Rainwise IP-100,2013-05-14 08:51:00,
2013-05-14 04:56:00,30.0,29.0,30.20,SW,225,5.0,6.0,95,0.00,,,0.00,Rainwise IP-100,2013-05-14 08:56:00,
2013-05-14 05:01:00,30.0,29.0,30.21,South,180,4.0,6.0,95,0.00,,,0.00,Rainwise IP-100,2013-05-14 09:01:00,
2013-05-14 05:06:00,31.0,29.0,30.21,South,180,5.0,5.0,95,0.00,,,0.00,Rainwise IP-100,2013-05-14 09:06:00,
2013-05-14 05:11:00,31.0,29.0,30.20,SSW,202,3.0,5.0,95,0.00,,,0.00,Rainwise IP-100,2013-05-14 09:11:00,
2013-05-14 05:16:00,31.0,29.0,30.20,South,180,0.0,5.0,95,0.00,,,0.00,Rainwise IP-100,2013-05-14 09:16:00,
2013-05-14 05:21:00,30.0,29.0,30.20,SE,135,6.0,6.0,95,0.00,,,0.00,Rainwise IP-100,2013-05-14 09:21:00,
2013-05-14 05:26:00,31.0,29.0,30.20,SE,135,3.0,6.0,95,0.00,,,0.00,Rainwise IP-100,2013-05-14 09:26:00,
2013-05-14 05:31:00,30.0,29.0,30.20,SW,225,3.0,6.0,95,0.00,,,0.00,Rainwise IP-100,2013-05-14 09:31:00,
2013-05-14 05:36:00,31.0,29.0,30.20,South,180,5.0,5.0,95,0.00,,,0.00,Rainwise IP-100,2013-05-14 09:36:00,
2013-05-14 05:41:00,31.0,29.0,30.21,South,180,2.0,5.0,95,0.00,,,0.00,Rainwise IP-100,2013-05-14 09:41:00,
2013-05-14 05:46:00,31.0,29.0,30.21,South,180,0.0,3.0,95,0.00,,,0.00,Rainwise IP-100,2013-05-14 09:46:00,
2013-05-14 05:51:00,30.0,29.0,30.21,SE,135,3.0,3.0,95,0.00,,,0.00,Rainwise IP-100,2013-05-14 09:51:00,
2013-05-14 05:56:00,30.0,29.0,30.21,North,360,0.0,5.0,95,0.00,,,0.00,Rainwise IP-100,2013-05-14 09:56:00,
2013-05-14 06:01:00,29.0,28.0,30.21,ENE,67,2.0,4.0,94,0.00,,,0.00,Rainwise IP-100,2013-05-14 10:01:00,
2013-05-14 06:06:00,29.0,28.0,30.23,ENE,67,0.0,3.0,94,0.00,,,0.00,Rainwise IP-100,2013-05-14 10:06:00,
2013-05-14 06:11:00,29.0,28.0,30.23,ENE,67,2.0,3.0,94,0.00,,,0.00,Rainwise IP-100,2013-05-14 10:11:00,
2013-05-14 06:16:00,29.0,28.0,30.23,ENE,67,0.0,3.0,94,0.00,,,0.00,Rainwise IP-100,2013-05-14 10:16:00,
2013-05-14 06:21:00,30.0,29.0,30.23,ESE,112,4.0,4.0,95,0.00,,,0.00,Rainwise IP-100,2013-05-14 10:21:00,
2013-05-14 06:26:00,30.0,29.0,30.23,SW,225,3.0,5.0,95,0.00,,,0.00,Rainwise IP-100,2013-05-14 10:26:00,
2013-05-14 06:31:00,30.0,29.0,30.23,SW,225,2.0,5.0,95,0.00,,,0.00,Rainwise IP-100,2013-05-14 10:31:00,
2013-05-14 06:36:00,31.0,29.0,30.23,SW,225,2.0,2.0,95,0.00,,,0.00,Rainwise IP-100,2013-05-14 10:36:00,
2013-05-14 06:41:00,31.0,29.0,30.23,NW,315,1.0,2.0,95,0.00,,,0.00,Rainwise IP-100,2013-05-14 10:41:00,
2013-05-14 06:46:00,31.0,29.0,30.23,NNE,22,0.0,2.0,95,0.00,,,0.00,Rainwise IP-100,2013-05-14 10:46:00,
2013-05-14 06:50:00,31.0,29.0,30.24,NNE,22,2.0,2.0,95,0.00,,,0.00,Rainwise IP-100,2013-05-14 10:50:00,
2013-05-14 06:55:00,31.0,29.0,30.24,NNE,22,1.0,2.0,95,0.00,,,0.00,Rainwise IP-100,2013-05-14 10:55:00,
2013-05-14 07:00:00,31.0,29.0,30.24,NNE,22,0.0,1.0,95,0.00,,,0.00,Rainwise IP-100,2013-05-14 11:00:00,
2013-05-14 07:05:00,31.0,29.0,30.24,NNE,22,0.0,0.0,95,0.00,,,0.00,Rainwise IP-100,2013-05-14 11:05:00,
2013-05-14 07:10:00,32.0,31.0,30.23,NNE,22,0.0,0.0,95,0.00,,,0.00,Rainwise IP-100,2013-05-14 11:10:00,
2013-05-14 07:15:00,33.0,32.0,30.23,NNE,22,0.0,0.0,95,0.00,,,0.00,Rainwise IP-100,2013-05-14 11:15:00,
2013-05-14 07:20:00,34.0,33.0,30.23,NNE,22,0.0,1.0,95,0.00,,,0.00,Rainwise IP-100,2013-05-14 11:20:00,
2013-05-14 07:25:00,35.0,33.0,30.23,North,360,2.0,4.0,95,0.00,,,0.00,Rainwise IP-100,2013-05-14 11:25:00,
2013-05-14 07:30:00,35.0,33.0,30.23,North,360,0.0,3.0,95,0.00,,,0.00,Rainwise IP-100,2013-05-14 11:30:00,
2013-05-14 07:35:00,37.0,36.0,30.23,North,360,0.0,3.0,96,0.00,,,0.00,Rainwise IP-100,2013-05-14 11:35:00,
2013-05-14 07:36:00,38.0,37.0,30.23,North,360,1.0,3.0,96,0.00,,,0.00,Rainwise IP-100,2013-05-14 11:36:00,
2013-05-14 07:41:00,38.0,37.0,30.22,East,90,3.0,5.0,96,0.00,,,0.00,Rainwise IP-100,2013-05-14 11:41:00,
2013-05-14 07:46:00,39.0,38.0,30.22,ENE,67,2.0,6.0,94,0.00,,,0.00,Rainwise IP-100,2013-05-14 11:46:00,
2013-05-14 07:51:00,39.0,35.0,30.23,East,90,3.0,5.0,85,0.00,,,0.00,Rainwise IP-100,2013-05-14 11:51:00,
2013-05-14 07:52:00,39.0,35.0,30.23,East,90,0.0,5.0,85,0.00,,,0.00,Rainwise IP-100,2013-05-14 11:52:00,
2013-05-14 07:57:00,41.0,40.0,30.22,NNW,337,2.0,3.0,96,0.00,,,0.00,Rainwise IP-100,2013-05-14 11:57:00,
2013-05-14 08:02:00,41.0,37.0,30.22,ENE,67,1.0,5.0,83,0.00,,,0.00,Rainwise IP-100,2013-05-14 12:02:00,
2013-05-14 08:07:00,41.0,32.0,30.22,East,90,0.0,4.0,70,0.00,,,0.00,Rainwise IP-100,2013-05-14 12:07:00,
2013-05-14 08:12:00,42.0,33.0,30.22,NE,45,1.0,4.0,71,0.00,,,0.00,Rainwise IP-100,2013-05-14 12:12:00,
2013-05-14 08:17:00,42.0,33.0,30.22,East,90,3.0,3.0,69,0.00,,,0.00,Rainwise IP-100,2013-05-14 12:17:00,
2013-05-14 08:22:00,42.0,32.0,30.22,East,90,5.0,6.0,68,0.00,,,0.00,Rainwise IP-100,2013-05-14 12:22:00,
2013-05-14 08:27:00,42.0,32.0,30.22,ESE,112,2.0,6.0,66,0.00,,,0.00,Rainwise IP-100,2013-05-14 12:27:00,
2013-05-14 08:32:00,44.0,33.0,30.22,South,180,0.0,4.0,64,0.00,,,0.00,Rainwise IP-100,2013-05-14 12:32:00,
2013-05-14 08:37:00,44.0,33.0,30.21,SW,225,1.0,4.0,64,0.00,,,0.00,Rainwise IP-100,2013-05-14 12:37:00,
2013-05-14 08:42:00,45.0,35.0,30.21,NNW,337,0.0,4.0,65,0.00,,,0.00,Rainwise IP-100,2013-05-14 12:42:00,
2013-05-14 08:47:00,45.0,32.0,30.21,NNE,22,6.0,6.0,59,0.00,,,0.00,Rainwise IP-100,2013-05-14 12:47:00,
2013-05-14 08:52:00,45.0,29.0,30.21,NNE,22,8.0,10.0,53,0.00,,,0.00,Rainwise IP-100,2013-05-14 12:52:00,
2013-05-14 08:57:00,46.0,29.0,30.20,NNW,337,0.0,9.0,52,0.00,,,0.00,Rainwise IP-100,2013-05-14 12:57:00,
2013-05-14 09:02:00,46.0,31.0,30.20,ENE,67,3.0,7.0,54,0.00,,,0.00,Rainwise IP-100,2013-05-14 13:02:00,
2013-05-14 09:07:00,46.0,32.0,30.20,East,90,3.0,7.0,57,0.00,,,0.00,Rainwise IP-100,2013-05-14 13:07:00,
2013-05-14 09:12:00,47.0,33.0,30.21,North,360,6.0,6.0,59,0.00,,,0.00,Rainwise IP-100,2013-05-14 13:12:00,
2013-05-14 09:17:00,46.0,31.0,30.21,North,360,7.0,12.0,54,0.00,,,0.00,Rainwise IP-100,2013-05-14 13:17:00,
2013-05-14 09:22:00,46.0,31.0,30.21,NW,315,11.0,16.0,55,0.00,,,0.00,Rainwise IP-100,2013-05-14 13:22:00,
2013-05-14 09:27:00,45.0,28.0,30.21,WNW,292,7.0,14.0,50,0.00,,,0.00,Rainwise IP-100,2013-05-14 13:27:00,
2013-05-14 09:32:00,45.0,28.0,30.21,North,360,7.0,16.0,51,0.00,,,0.00,Rainwise IP-100,2013-05-14 13:32:00,
2013-05-14 09:37:00,44.0,28.0,30.21,NNW,337,13.0,17.0,52,0.00,,,0.00,Rainwise IP-100,2013-05-14 13:37:00,
2013-05-14 09:42:00,44.0,28.0,30.21,North,360,8.0,15.0,53,0.00,,,0.00,Rainwise IP-100,2013-05-14 13:42:00,
2013-05-14 09:47:00,44.0,29.0,30.20,NW,315,12.0,15.0,55,0.00,,,0.00,Rainwise IP-100,2013-05-14 13:47:00,
2013-05-14 09:52:00,44.0,28.0,30.20,NW,315,17.0,19.0,52,0.00,,,0.00,Rainwise IP-100,2013-05-14 13:52:00,
2013-05-14 09:57:00,44.0,28.0,30.20,NNW,337,9.0,19.0,52,0.00,,,0.00,Rainwise IP-100,2013-05-14 13:57:00,
2013-05-14 10:02:00,44.0,28.0,30.20,North,360,13.0,16.0,51,0.00,,,0.00,Rainwise IP-100,2013-05-14 14:02:00,
2013-05-14 10:07:00,44.0,28.0,30.20,North,360,5.0,19.0,51,0.00,,,0.00,Rainwise IP-100,2013-05-14 14:07:00,
2013-05-14 10:12:00,44.0,28.0,30.20,North,360,15.0,19.0,50,0.00,,,0.00,Rainwise IP-100,2013-05-14 14:12:00,
2013-05-14 10:17:00,44.0,28.0,30.20,NNW,337,7.0,18.0,51,0.00,,,0.00,Rainwise IP-100,2013-05-14 14:17:00,
2013-05-14 10:22:00,45.0,29.0,30.19,NNW,337,11.0,13.0,52,0.00,,,0.00,Rainwise IP-100,2013-05-14 14:22:00,
2013-05-14 10:27:00,46.0,28.0,30.18,NW,315,12.0,13.0,48,0.00,,,0.00,Rainwise IP-100,2013-05-14 14:27:00,
2013-05-14 10:32:00,46.0,28.0,30.18,NNW,337,10.0,13.0,49,0.00,,,0.00,Rainwise IP-100,2013-05-14 14:32:00,
2013-05-14 10:37:00,47.0,28.0,30.18,WNW,292,10.0,13.0,48,0.00,,,0.00,Rainwise IP-100,2013-05-14 14:37:00,
2013-05-14 10:42:00,45.0,26.0,30.18,NNW,337,12.0,18.0,47,0.00,,,0.00,Rainwise IP-100,2013-05-14 14:42:00,
2013-05-14 10:47:00,45.0,26.0,30.19,North,360,7.0,18.0,47,0.00,,,0.00,Rainwise IP-100,2013-05-14 14:47:00,
2013-05-14 10:52:00,45.0,26.0,30.19,NNW,337,16.0,19.0,48,0.00,,,0.00,Rainwise IP-100,2013-05-14 14:52:00,
2013-05-14 10:57:00,45.0,28.0,30.18,NW,315,6.0,19.0,49,0.00,,,0.00,Rainwise IP-100,2013-05-14 14:57:00,
2013-05-14 11:02:00,45.0,26.0,30.18,NW,315,11.0,18.0,45,0.00,,,0.00,Rainwise IP-100,2013-05-14 15:02:00,
2013-05-14 11:07:00,46.0,28.0,30.18,North,360,5.0,16.0,47,0.00,,,0.00,Rainwise IP-100,2013-05-14 15:07:00,
2013-05-14 11:12:00,47.0,26.0,30.18,North,360,7.0,13.0,45,0.00,,,0.00,Rainwise IP-100,2013-05-14 15:12:00,
2013-05-14 11:17:00,48.0,28.0,30.17,NNW,337,5.0,12.0,45,0.00,,,0.00,Rainwise IP-100,2013-05-14 15:17:00,
2013-05-14 11:22:00,48.0,28.0,30.17,North,360,7.0,12.0,43,0.00,,,0.00,Rainwise IP-100,2013-05-14 15:22:00,
2013-05-14 11:27:00,48.0,28.0,30.17,West,270,15.0,15.0,45,0.00,,,0.00,Rainwise IP-100,2013-05-14 15:27:00,
2013-05-14 11:32:00,47.0,26.0,30.17,NW,315,13.0,17.0,45,0.00,,,0.00,Rainwise IP-100,2013-05-14 15:32:00,
2013-05-14 11:37:00,48.0,28.0,30.17,NNW,337,7.0,17.0,43,0.00,,,0.00,Rainwise IP-100,2013-05-14 15:37:00,
2013-05-14 11:42:00,48.0,31.0,30.17,NW,315,13.0,18.0,49,0.00,,,0.00,Rainwise IP-100,2013-05-14 15:42:00,
2013-05-14 11:47:00,47.0,26.0,30.17,NNW,337,10.0,18.0,45,0.00,,,0.00,Rainwise IP-100,2013-05-14 15:47:00,
2013-05-14 11:52:00,48.0,28.0,30.17,North,360,4.0,15.0,44,0.00,,,0.00,Rainwise IP-100,2013-05-14 15:52:00,
2013-05-14 11:57:00,48.0,28.0,30.17,NW,315,12.0,17.0,45,0.00,,,0.00,Rainwise IP-100,2013-05-14 15:57:00,
2013-05-14 12:02:00,48.0,28.0,30.17,NW,315,12.0,15.0,45,0.00,,,0.00,Rainwise IP-100,2013-05-14 16:02:00,
2013-05-14 12:07:00,48.0,26.0,30.17,NNW,337,9.0,15.0,41,0.00,,,0.00,Rainwise IP-100,2013-05-14 16:07:00,
2013-05-14 12:12:00,48.0,28.0,30.17,NE,45,10.0,12.0,43,0.00,,,0.00,Rainwise IP-100,2013-05-14 16:12:00,
2013-05-14 12:17:00,49.0,28.0,30.17,NNW,337,6.0,17.0,44,0.00,,,0.00,Rainwise IP-100,2013-05-14 16:17:00,
2013-05-14 12:22:00,48.0,26.0,30.17,North,360,10.0,17.0,42,0.00,,,0.00,Rainwise IP-100,2013-05-14 16:22:00,
2013-05-14 12:27:00,47.0,24.0,30.17,NW,315,8.0,16.0,42,0.00,,,0.00,Rainwise IP-100,2013-05-14 16:27:00,
2013-05-14 12:32:00,48.0,28.0,30.17,NNW,337,5.0,12.0,43,0.00,,,0.00,Rainwise IP-100,2013-05-14 16:32:00,
2013-05-14 12:37:00,48.0,26.0,30.16,NE,45,6.0,17.0,42,0.00,,,0.00,Rainwise IP-100,2013-05-14 16:37:00,
2013-05-14 12:42:00,49.0,26.0,30.16,NNW,337,17.0,17.0,40,0.00,,,0.00,Rainwise IP-100,2013-05-14 16:42:00,
2013-05-14 12:47:00,49.0,28.0,30.16,NW,315,12.0,20.0,42,0.00,,,0.00,Rainwise IP-100,2013-05-14 16:47:00,
2013-05-14 12:52:00,49.0,26.0,30.16,NNW,337,9.0,18.0,41,0.00,,,0.00,Rainwise IP-100,2013-05-14 16:52:00,
2013-05-14 12:57:00,49.0,26.0,30.16,NW,315,6.0,13.0,39,0.00,,,0.00,Rainwise IP-100,2013-05-14 16:57:00,
2013-05-14 13:02:00,48.0,26.0,30.15,North,360,10.0,20.0,42,0.00,,,0.00,Rainwise IP-100,2013-05-14 17:02:00,
2013-05-14 13:07:00,49.0,24.0,30.17,NNW,337,9.0,20.0,37,0.00,,,0.00,Rainwise IP-100,2013-05-14 17:07:00,
2013-05-14 13:12:00,50.0,26.0,30.17,North,360,15.0,17.0,38,0.00,,,0.00,Rainwise IP-100,2013-05-14 17:12:00,
2013-05-14 13:17:00,49.0,26.0,30.16,NNW,337,13.0,18.0,40,0.00,,,0.00,Rainwise IP-100,2013-05-14 17:17:00,
2013-05-14 13:22:00,48.0,26.0,30.16,NW,315,8.0,18.0,42,0.00,,,0.00,Rainwise IP-100,2013-05-14 17:22:00,
2013-05-14 13:27:00,50.0,28.0,30.15,North,360,13.0,18.0,42,0.00,,,0.00,Rainwise IP-100,2013-05-14 17:27:00,
2013-05-14 13:32:00,49.0,26.0,30.15,NNW,337,10.0,14.0,40,0.00,,,0.00,Rainwise IP-100,2013-05-14 17:32:00,
2013-05-14 13:37:00,49.0,28.0,30.16,ESE,112,5.0,22.0,42,0.00,,,0.00,Rainwise IP-100,2013-05-14 17:37:00,
2013-05-14 13:42:00,50.0,28.0,30.16,North,360,6.0,15.0,41,0.00,,,0.00,Rainwise IP-100,2013-05-14 17:42:00,
2013-05-14 13:47:00,50.0,26.0,30.15,NNW,337,10.0,19.0,39,0.00,,,0.00,Rainwise IP-100,2013-05-14 17:47:00,
2013-05-14 13:52:00,50.0,29.0,30.15,North,360,13.0,23.0,44,0.00,,,0.00,Rainwise IP-100,2013-05-14 17:52:00,
2013-05-14 13:57:00,49.0,26.0,30.15,NNW,337,12.0,23.0,39,0.00,,,0.00,Rainwise IP-100,2013-05-14 17:57:00,
2013-05-14 14:02:00,49.0,26.0,30.15,NW,315,10.0,19.0,41,0.00,,,0.00,Rainwise IP-100,2013-05-14 18:02:00,
2013-05-14 14:07:00,49.0,28.0,30.15,NNW,337,15.0,20.0,43,0.00,,,0.00,Rainwise IP-100,2013-05-14 18:07:00,
2013-05-14 14:12:00,50.0,28.0,30.15,NW,315,7.0,15.0,41,0.00,,,0.00,Rainwise IP-100,2013-05-14 18:12:00,
2013-05-14 14:17:00,49.0,24.0,30.15,North,360,9.0,17.0,38,0.00,,,0.00,Rainwise IP-100,2013-05-14 18:17:00,
2013-05-14 14:22:00,49.0,28.0,30.15,North,360,1.0,17.0,42,0.00,,,0.00,Rainwise IP-100,2013-05-14 18:22:00,
2013-05-14 14:27:00,49.0,26.0,30.15,NW,315,10.0,12.0,40,0.00,,,0.00,Rainwise IP-100,2013-05-14 18:27:00,
2013-05-14 14:32:00,49.0,26.0,30.15,NW,315,14.0,15.0,41,0.00,,,0.00,Rainwise IP-100,2013-05-14 18:32:00,
2013-05-14 14:37:00,51.0,29.0,30.14,NNE,22,9.0,16.0,42,0.00,,,0.00,Rainwise IP-100,2013-05-14 18:37:00,
2013-05-14 14:42:00,50.0,28.0,30.14,NW,315,7.0,16.0,43,0.00,,,0.00,Rainwise IP-100,2013-05-14 18:42:00,
2013-05-14 14:47:00,52.0,32.0,30.13,North,360,11.0,17.0,46,0.00,,,0.00,Rainwise IP-100,2013-05-14 18:47:00,
2013-05-14 14:52:00,51.0,26.0,30.13,NW,315,12.0,15.0,38,0.00,,,0.00,Rainwise IP-100,2013-05-14 18:52:00,
2013-05-14 14:57:00,52.0,31.0,30.13,NW,315,10.0,13.0,43,0.00,,,0.00,Rainwise IP-100,2013-05-14 18:57:00,
2013-05-14 15:02:00,50.0,24.0,30.14,NW,315,5.0,11.0,37,0.00,,,0.00,Rainwise IP-100,2013-05-14 19:02:00,
2013-05-14 15:07:00,53.0,26.0,30.13,North,360,3.0,13.0,36,0.00,,,0.00,Rainwise IP-100,2013-05-14 19:07:00,
2013-05-14 15:12:00,51.0,26.0,30.13,WNW,292,9.0,17.0,36,0.00,,,0.00,Rainwise IP-100,2013-05-14 19:12:00,
2013-05-14 15:17:00,51.0,26.0,30.14,NW,315,7.0,15.0,38,0.00,,,0.00,Rainwise IP-100,2013-05-14 19:17:00,
2013-05-14 15:22:00,51.0,28.0,30.14,North,360,5.0,17.0,39,0.00,,,0.00,Rainwise IP-100,2013-05-14 19:22:00,
2013-05-14 15:27:00,51.0,26.0,30.13,North,360,9.0,16.0,37,0.00,,,0.00,Rainwise IP-100,2013-05-14 19:27:00,
2013-05-14 15:32:00,50.0,26.0,30.13,NNW,337,10.0,17.0,39,0.00,,,0.00,Rainwise IP-100,2013-05-14 19:32:00,
2013-05-14 15:37:00,51.0,29.0,30.13,NNW,337,7.0,16.0,42,0.00,,,0.00,Rainwise IP-100,2013-05-14 19:37:00,
2013-05-14 15:42:00,51.0,29.0,30.13,NW,315,12.0,15.0,41,0.00,,,0.00,Rainwise IP-100,2013-05-14 19:42:00,
2013-05-14 15:47:00,51.0,29.0,30.13,NW,315,9.0,16.0,41,0.00,,,0.00,Rainwise IP-100,2013-05-14 19:47:00,
2013-05-14 15:52:00,50.0,26.0,30.13,North,360,9.0,15.0,39,0.00,,,0.00,Rainwise IP-100,2013-05-14 19:52:00,
2013-05-14 15:57:00,50.0,26.0,30.13,North,360,7.0,13.0,38,0.00,,,0.00,Rainwise IP-100,2013-05-14 19:57:00,
2013-05-14 16:02:00,50.0,28.0,30.13,NE,45,4.0,9.0,41,0.00,,,0.00,Rainwise IP-100,2013-05-14 20:02:00,
2013-05-14 16:07:00,51.0,29.0,30.12,North,360,2.0,10.0,42,0.00,,,0.00,Rainwise IP-100,2013-05-14 20:07:00,
2013-05-14 16:12:00,51.0,26.0,30.12,ENE,67,4.0,7.0,38,0.00,,,0.00,Rainwise IP-100,2013-05-14 20:12:00,
2013-05-14 16:17:00,51.0,29.0,30.11,North,360,4.0,9.0,41,0.00,,,0.00,Rainwise IP-100,2013-05-14 20:17:00,
2013-05-14 16:22:00,50.0,28.0,30.11,NNE,22,3.0,7.0,41,0.00,,,0.00,Rainwise IP-100,2013-05-14 20:22:00,
2013-05-14 16:27:00,51.0,28.0,30.11,NNE,22,4.0,7.0,40,0.00,,,0.00,Rainwise IP-100,2013-05-14 20:27:00,
2013-05-14 16:32:00,51.0,28.0,30.11,NNE,22,6.0,9.0,40,0.00,,,0.00,Rainwise IP-100,2013-05-14 20:32:00,
2013-05-14 16:37:00,52.0,28.0,30.10,North,360,7.0,8.0,39,0.00,,,0.00,Rainwise IP-100,2013-05-14 20:37:00,
2013-05-14 16:42:00,52.0,28.0,30.10,NW,315,7.0,16.0,38,0.00,,,0.00,Rainwise IP-100,2013-05-14 20:42:00,
2013-05-14 16:47:00,53.0,26.0,30.10,NE,45,4.0,11.0,34,0.00,,,0.00,Rainwise IP-100,2013-05-14 20:47:00,
2013-05-14 16:52:00,52.0,26.0,30.10,ENE,67,7.0,7.0,37,0.00,,,0.00,Rainwise IP-100,2013-05-14 20:52:00,
2013-05-14 16:57:00,52.0,26.0,30.10,NE,45,6.0,9.0,36,0.00,,,0.00,Rainwise IP-100,2013-05-14 20:57:00,
2013-05-14 17:02:00,51.0,26.0,30.11,NNE,22,4.0,12.0,38,0.00,,,0.00,Rainwise IP-100,2013-05-14 21:02:00,
2013-05-14 17:07:00,50.0,24.0,30.11,NNE,22,4.0,9.0,37,0.00,,,0.00,Rainwise IP-100,2013-05-14 21:07:00,
2013-05-14 17:12:00,50.0,26.0,30.11,NNE,22,2.0,6.0,40,0.00,,,0.00,Rainwise IP-100,2013-05-14 21:12:00,
2013-05-14 17:17:00,50.0,26.0,30.11,NNE,22,2.0,9.0,38,0.00,,,0.00,Rainwise IP-100,2013-05-14 21:17:00,
2013-05-14 17:22:00,51.0,28.0,30.11,NE,45,3.0,9.0,39,0.00,,,0.00,Rainwise IP-100,2013-05-14 21:22:00,
2013-05-14 17:27:00,52.0,26.0,30.09,NNE,22,4.0,9.0,36,0.00,,,0.00,Rainwise IP-100,2013-05-14 21:27:00,
2013-05-14 17:32:00,51.0,28.0,30.09,NNE,22,2.0,12.0,39,0.00,,,0.00,Rainwise IP-100,2013-05-14 21:32:00,
2013-05-14 17:37:00,52.0,29.0,30.09,NE,45,2.0,10.0,40,0.00,,,0.00,Rainwise IP-100,2013-05-14 21:37:00,
2013-05-14 17:42:00,52.0,26.0,30.09,East,90,3.0,6.0,37,0.00,,,0.00,Rainwise IP-100,2013-05-14 21:42:00,
2013-05-14 17:47:00,52.0,26.0,30.09,ENE,67,2.0,7.0,37,0.00,,,0.00,Rainwise IP-100,2013-05-14 21:47:00,
2013-05-14 17:52:00,53.0,29.0,30.09,NE,45,1.0,6.0,39,0.00,,,0.00,Rainwise IP-100,2013-05-14 21:52:00,
2013-05-14 17:57:00,54.0,28.0,30.09,North,360,7.0,12.0,36,0.00,,,0.00,Rainwise IP-100,2013-05-14 21:57:00,
2013-05-14 18:02:00,54.0,26.0,30.09,North,360,5.0,8.0,33,0.00,,,0.00,Rainwise IP-100,2013-05-14 22:02:00,
2013-05-14 18:07:00,55.0,28.0,30.08,North,360,2.0,8.0,34,0.00,,,0.00,Rainwise IP-100,2013-05-14 22:07:00,
2013-05-14 18:12:00,54.0,28.0,30.08,North,360,5.0,7.0,36,0.00,,,0.00,Rainwise IP-100,2013-05-14 22:12:00,
2013-05-14 18:17:00,55.0,28.0,30.08,North,360,5.0,7.0,35,0.00,,,0.00,Rainwise IP-100,2013-05-14 22:17:00,
2013-05-14 18:22:00,55.0,28.0,30.08,North,360,6.0,9.0,33,0.00,,,0.00,Rainwise IP-100,2013-05-14 22:22:00,
2013-05-14 18:27:00,55.0,26.0,30.08,NE,45,7.0,10.0,32,0.00,,,0.00,Rainwise IP-100,2013-05-14 22:27:00,
2013-05-14 18:32:00,54.0,26.0,30.08,North,360,12.0,15.0,33,0.00,,,0.00,Rainwise IP-100,2013-05-14 22:32:00,
2013-05-14 18:37:00,53.0,26.0,30.08,NW,315,10.0,15.0,36,0.00,,,0.00,Rainwise IP-100,2013-05-14 22:37:00,
2013-05-14 18:42:00,52.0,26.0,30.09,North,360,9.0,13.0,36,0.00,,,0.00,Rainwise IP-100,2013-05-14 22:42:00,
2013-05-14 18:47:00,52.0,28.0,30.09,NW,315,5.0,13.0,38,0.00,,,0.00,Rainwise IP-100,2013-05-14 22:47:00,
2013-05-14 18:52:00,51.0,26.0,30.09,WNW,292,8.0,15.0,36,0.00,,,0.00,Rainwise IP-100,2013-05-14 22:52:00,
2013-05-14 18:57:00,51.0,26.0,30.09,NNW,337,4.0,10.0,38,0.00,,,0.00,Rainwise IP-100,2013-05-14 22:57:00,
2013-05-14 19:02:00,51.0,28.0,30.10,North,360,3.0,9.0,39,0.00,,,0.00,Rainwise IP-100,2013-05-14 23:02:00,
2013-05-14 19:07:00,52.0,26.0,30.09,NNW,337,7.0,10.0,37,0.00,,,0.00,Rainwise IP-100,2013-05-14 23:07:00,
2013-05-14 19:12:00,51.0,26.0,30.09,North,360,6.0,9.0,38,0.00,,,0.00,Rainwise IP-100,2013-05-14 23:12:00,
2013-05-14 19:17:00,51.0,28.0,30.09,North,360,3.0,7.0,39,0.00,,,0.00,Rainwise IP-100,2013-05-14 23:17:00,
2013-05-14 19:22:00,51.0,26.0,30.09,NNE,22,1.0,6.0,38,0.00,,,0.00,Rainwise IP-100,2013-05-14 23:22:00,
2013-05-14 19:27:00,50.0,26.0,30.09,NNE,22,4.0,6.0,39,0.00,,,0.00,Rainwise IP-100,2013-05-14 23:27:00,
2013-05-14 19:32:00,50.0,24.0,30.11,North,360,3.0,7.0,37,0.00,,,0.00,Rainwise IP-100,2013-05-14 23:32:00,
2013-05-14 19:37:00,50.0,28.0,30.11,East,90,4.0,6.0,41,0.00,,,0.00,Rainwise IP-100,2013-05-14 23:37:00,
2013-05-14 19:42:00,49.0,26.0,30.11,NNE,22,2.0,5.0,40,0.00,,,0.00,Rainwise IP-100,2013-05-14 23:42:00,
2013-05-14 19:47:00,49.0,26.0,30.11,NNE,22,2.0,6.0,39,0.00,,,0.00,Rainwise IP-100,2013-05-14 23:47:00,
2013-05-14 19:52:00,48.0,26.0,30.12,North,360,2.0,5.0,41,0.00,,,0.00,Rainwise IP-100,2013-05-14 23:52:00,
2013-05-14 19:57:00,48.0,26.0,30.13,NNE,22,4.0,6.0,40,0.00,,,0.00,Rainwise IP-100,2013-05-14 23:57:00,
2013-05-14 20:02:00,47.0,24.0,30.13,North,360,2.0,5.0,42,0.00,,,0.00,Rainwise IP-100,2013-05-15 00:02:00,
2013-05-14 20:07:00,47.0,26.0,30.13,North,360,2.0,5.0,44,0.00,,,0.00,Rainwise IP-100,2013-05-15 00:07:00,
2013-05-14 20:12:00,46.0,26.0,30.13,North,360,0.0,2.0,46,0.00,,,0.00,Rainwise IP-100,2013-05-15 00:12:00,
2013-05-14 20:17:00,46.0,28.0,30.13,North,360,0.0,1.0,47,0.00,,,0.00,Rainwise IP-100,2013-05-15 00:17:00,
2013-05-14 20:22:00,45.0,28.0,30.13,North,360,0.0,1.0,49,0.00,,,0.00,Rainwise IP-100,2013-05-15 00:22:00,
2013-05-14 20:27:00,44.0,28.0,30.13,North,360,0.0,2.0,50,0.00,,,0.00,Rainwise IP-100,2013-05-15 00:27:00,
2013-05-14 20:32:00,44.0,29.0,30.13,East,90,1.0,2.0,54,0.00,,,0.00,Rainwise IP-100,2013-05-15 00:32:00,
2013-05-14 20:37:00,43.0,29.0,30.14,ESE,112,3.0,4.0,56,0.00,,,0.00,Rainwise IP-100,2013-05-15 00:37:00,
2013-05-14 20:42:00,43.0,28.0,30.14,ESE,112,2.0,3.0,54,0.00,,,0.00,Rainwise IP-100,2013-05-15 00:42:00,
2013-05-14 20:47:00,43.0,28.0,30.14,ESE,112,0.0,3.0,53,0.00,,,0.00,Rainwise IP-100,2013-05-15 00:47:00,
2013-05-14 20:52:00,43.0,29.0,30.14,ESE,112,1.0,2.0,56,0.00,,,0.00,Rainwise IP-100,2013-05-15 00:52:00,
2013-05-14 20:57:00,43.0,29.0,30.14,ESE,112,2.0,3.0,57,0.00,,,0.00,Rainwise IP-100,2013-05-15 00:57:00,
2013-05-14 21:02:00,42.0,31.0,30.14,ESE,112,3.0,3.0,63,0.00,,,0.00,Rainwise IP-100,2013-05-15 01:02:00,
2013-05-14 21:07:00,42.0,29.0,30.15,ESE,112,2.0,4.0,61,0.00,,,0.00,Rainwise IP-100,2013-05-15 01:07:00,
2013-05-14 21:12:00,41.0,31.0,30.15,ESE,112,0.0,3.0,67,0.00,,,0.00,Rainwise IP-100,2013-05-15 01:12:00,
2013-05-14 21:17:00,40.0,31.0,30.17,ESE,112,1.0,1.0,68,0.00,,,0.00,Rainwise IP-100,2013-05-15 01:17:00,
2013-05-14 21:22:00,40.0,31.0,30.17,ESE,112,3.0,4.0,68,0.00,,,0.00,Rainwise IP-100,2013-05-15 01:22:00,
2013-05-14 21:27:00,40.0,32.0,30.17,SSE,157,3.0,6.0,70,0.00,,,0.00,Rainwise IP-100,2013-05-15 01:27:00,
2013-05-14 21:32:00,40.0,32.0,30.17,SSE,157,3.0,6.0,71,0.00,,,0.00,Rainwise IP-100,2013-05-15 01:32:00,
2013-05-14 21:37:00,40.0,31.0,30.17,SE,135,4.0,6.0,69,0.00,,,0.00,Rainwise IP-100,2013-05-15 01:37:00,
2013-05-14 21:42:00,40.0,31.0,30.17,SE,135,2.0,6.0,69,0.00,,,0.00,Rainwise IP-100,2013-05-15 01:42:00,
2013-05-14 21:47:00,40.0,32.0,30.17,SE,135,1.0,3.0,72,0.00,,,0.00,Rainwise IP-100,2013-05-15 01:47:00,
2013-05-14 21:52:00,39.0,32.0,30.17,SE,135,2.0,2.0,74,0.00,,,0.00,Rainwise IP-100,2013-05-15 01:52:00,
2013-05-14 21:57:00,39.0,32.0,30.17,SSW,202,3.0,4.0,76,0.00,,,0.00,Rainwise IP-100,2013-05-15 01:57:00,
2013-05-14 22:02:00,38.0,31.0,30.18,SSW,202,4.0,4.0,74,0.00,,,0.00,Rainwise IP-100,2013-05-15 02:02:00,
2013-05-14 22:07:00,39.0,31.0,30.17,South,180,6.0,6.0,71,0.00,,,0.00,Rainwise IP-100,2013-05-15 02:07:00,
2013-05-14 22:12:00,39.0,31.0,30.17,SSE,157,4.0,7.0,69,0.00,,,0.00,Rainwise IP-100,2013-05-15 02:12:00,
2013-05-14 22:17:00,39.0,32.0,30.17,SW,225,3.0,4.0,75,0.00,,,0.00,Rainwise IP-100,2013-05-15 02:17:00,
2013-05-14 22:22:00,38.0,32.0,30.17,SW,225,3.0,5.0,78,0.00,,,0.00,Rainwise IP-100,2013-05-15 02:22:00,
2013-05-14 22:27:00,38.0,32.0,30.18,SW,225,4.0,4.0,78,0.00,,,0.00,Rainwise IP-100,2013-05-15 02:27:00,
2013-05-14 22:32:00,37.0,31.0,30.18,SW,225,4.0,5.0,78,0.00,,,0.00,Rainwise IP-100,2013-05-15 02:32:00,
2013-05-14 22:37:00,38.0,31.0,30.18,SW,225,2.0,4.0,76,0.00,,,0.00,Rainwise IP-100,2013-05-15 02:37:00,
2013-05-14 22:42:00,38.0,31.0,30.18,SW,225,2.0,4.0,76,0.00,,,0.00,Rainwise IP-100,2013-05-15 02:42:00,
2013-05-14 22:47:00,38.0,31.0,30.18,SW,225,0.0,2.0,74,0.00,,,0.00,Rainwise IP-100,2013-05-15 02:47:00,
2013-05-14 22:52:00,39.0,31.0,30.18,South,180,2.0,4.0,70,0.00,,,0.00,Rainwise IP-100,2013-05-15 02:52:00,
2013-05-14 22:57:00,39.0,31.0,30.17,SSE,157,3.0,4.0,71,0.00,,,0.00,Rainwise IP-100,2013-05-15 02:57:00,
2013-05-14 23:02:00,38.0,31.0,30.17,SSE,157,0.0,4.0,75,0.00,,,0.00,Rainwise IP-100,2013-05-15 03:02:00,
2013-05-14 23:07:00,38.0,32.0,30.18,SW,225,2.0,5.0,78,0.00,,,0.00,Rainwise IP-100,2013-05-15 03:07:00,
2013-05-14 23:12:00,37.0,32.0,30.18,SW,225,3.0,4.0,80,0.00,,,0.00,Rainwise IP-100,2013-05-15 03:12:00,
2013-05-14 23:17:00,37.0,31.0,30.18,South,180,2.0,5.0,78,0.00,,,0.00,Rainwise IP-100,2013-05-15 03:17:00,
2013-05-14 23:22:00,37.0,31.0,30.18,South,180,2.0,4.0,77,0.00,,,0.00,Rainwise IP-100,2013-05-15 03:22:00,
2013-05-14 23:27:00,37.0,31.0,30.18,SW,225,4.0,5.0,78,0.00,,,0.00,Rainwise IP-100,2013-05-15 03:27:00,
2013-05-14 23:32:00,36.0,31.0,30.18,SW,225,1.0,5.0,80,0.00,,,0.00,Rainwise IP-100,2013-05-15 03:32:00,
2013-05-14 23:37:00,36.0,31.0,30.19,SSW,202,3.0,4.0,81,0.00,,,0.00,Rainwise IP-100,2013-05-15 03:37:00,
2013-05-14 23:42:00,36.0,31.0,30.19,SSW,202,4.0,4.0,82,0.00,,,0.00,Rainwise IP-100,2013-05-15 03:42:00,
2013-05-14 23:47:00,37.0,31.0,30.18,South,180,6.0,6.0,78,0.00,,,0.00,Rainwise IP-100,2013-05-15 03:47:00,
2013-05-14 23:52:00,37.0,31.0,30.18,South,180,7.0,8.0,76,0.00,,,0.00,Rainwise IP-100,2013-05-15 03:52:00,
2013-05-14 23:57:00,37.0,29.0,30.18,SSE,157,7.0,8.0,73,0.00,,,0.00,Rainwise IP-100,2013-05-15 03:57:00,